Overview Statistics Trail Chart Weather Telemetry Raw packets
 

This is the latest recevied weather packets stored in our database for station/object SR3WXA. If no packets are shown the sender has not sent any weather packets the latest 10 day(s).

<< 93 94 95 96 97 98 99 >>
Time Temp. Humidity Pressure Rain* Wind** Luminosity Snow
1788272481 19.44° C 74% 1016.7 hPa 0 mm - 109 W/m² -
1788272445 19.44° C 74% 1016.7 hPa 0 mm - 109 W/m² -
1788272229 19.44° C 74% 1016.8 hPa 0 mm - 148 W/m² -
1788272133 19.44° C 74% 1016.8 hPa 0 mm - 148 W/m² -
1788271603 19.44° C 75% 1016.8 hPa 0 mm - 172 W/m² -
1788271554 19.44° C 75% 1016.8 hPa 0 mm - 172 W/m² -
1788271300 19.44° C 75% 1016.8 hPa 0 mm - 167 W/m² -
1788271234 19.44° C 75% 1016.8 hPa 0 mm - 167 W/m² -
1788270700 19.44° C 75% 1016.9 hPa 0 mm - 190 W/m² -
1788270685 19.44° C 75% 1016.9 hPa 0 mm - 190 W/m² -
1788270420 19.44° C 76% 1016.9 hPa 0 mm - 109 W/m² -
1788270366 19.44° C 76% 1016.9 hPa 0 mm - 109 W/m² -
1788270111 19.44° C 75% 1017 hPa 0 mm - 86 W/m² -
1788270066 19.44° C 75% 1017 hPa 0 mm - 86 W/m² -
1788269824 19.44° C 74% 1016.9 hPa 0 mm - 134 W/m² -
1788269766 19.44° C 74% 1016.9 hPa 0 mm - 134 W/m² -
1788268304 19.44° C 77% 1017.1 hPa 0 mm - 158 W/m² -
1788268266 19.44° C 77% 1017.1 hPa 0 mm - 158 W/m² -
1788267966 19.44° C 75% 1017 hPa 0 mm - 218 W/m² -
1788267668 19.44° C 75% 1017 hPa 0 mm - 628 W/m² -
1788267422 20° C 73% 1016.9 hPa 0 mm - 100 W/m² -
1788267366 20° C 73% 1016.9 hPa 0 mm - 100 W/m² -
1788267107 20° C 72% 1016.8 hPa 0 mm - 91 W/m² -
1788267066 20° C 72% 1016.8 hPa 0 mm - 91 W/m² -
1788266802 20° C 73% 1016.7 hPa 0 mm - 239 W/m² -

* Rain latest hour (hover to see other rain measurements)
** Current wind speed in m/s (hover to see current wind gust speed)